• In Uzbekistan
  • List of Countries
  • For 7 days
  • Water Temperature
  • Satellite Maps
  • Weather Map
  • Weather Widgets
  • user-avatar
    Login

    Hourly Weather Solden

    Today, 16 January, Monday

    Time Temperature Precipitation Wind Pressure Humidity
    00:00 -23°C° 0 mm 2 mps 572 mmHg 88%
    01:00 -19°C° 0 mm 2 mps 573 mmHg 87%
    02:00 -19°C° 0.1 mm 2 mps 573 mmHg 87%
    03:00 -20°C° 0.1 mm 2 mps 573 mmHg 88%
    04:00 -20°C° 0.1 mm 2 mps 572 mmHg 88%
    05:00 -20°C° 0 mm 2 mps 572 mmHg 88%
    06:00 -20°C° 0 mm 2 mps 572 mmHg 88%
    07:00 -20°C° 0 mm 2 mps 572 mmHg 87%
    08:00 -19°C° 0 mm 2 mps 573 mmHg 86%
    09:00 -18°C° 0 mm 2 mps 574 mmHg 85%
    10:00 -17°C° 0 mm 2 mps 574 mmHg 83%
    11:00 -17°C° 0 mm 2 mps 574 mmHg 81%
    12:00 -16°C° 0 mm 2 mps 574 mmHg 78%
    13:00 -15°C° 0 mm 2 mps 575 mmHg 76%
    14:00 -16°C° 0 mm 2 mps 574 mmHg 78%
    15:00 -16°C° 0 mm 2 mps 574 mmHg 80%
    16:00 -16°C° 0 mm 2 mps 574 mmHg 82%
    17:00 -18°C° 0 mm 2 mps 573 mmHg 84%
    18:00 -19°C° 0 mm 2 mps 573 mmHg 86%
    19:00 -20°C° 0 mm 2 mps 573 mmHg 88%
    20:00 -20°C° 0 mm 2 mps 573 mmHg 87%
    21:00 -20°C° 0 mm 2 mps 573 mmHg 87%
    22:00 -20°C° 0 mm 2 mps 573 mmHg 87%
    23:00 -20°C° 0 mm 2 mps 573 mmHg 87%

    Tomorrow, 17 January, Tuesday

    Time Temperature Precipitation Wind Pressure Humidity
    00:00 -21°C° 0 mm 2 mps 573 mmHg 87%
    01:00 -23°C° 0 mm 3 mps 573 mmHg 87%
    02:00 -23°C° 0 mm 3 mps 573 mmHg 87%
    03:00 -23°C° 0 mm 3 mps 573 mmHg 87%
    04:00 -23°C° 0 mm 3 mps 574 mmHg 86%
    05:00 -23°C° 0 mm 3 mps 574 mmHg 86%
    06:00 -23°C° 0 mm 3 mps 574 mmHg 86%
    07:00 -23°C° 0 mm 3 mps 574 mmHg 86%
    08:00 -22°C° 0 mm 3 mps 575 mmHg 85%
    09:00 -21°C° 0 mm 3 mps 575 mmHg 84%
    10:00 -19°C° 0 mm 3 mps 576 mmHg 82%
    11:00 -18°C° 0 mm 3 mps 577 mmHg 81%
    12:00 -17°C° 0 mm 3 mps 577 mmHg 80%
    13:00 -16°C° 0 mm 3 mps 578 mmHg 78%
    14:00 -16°C° 0 mm 3 mps 578 mmHg 80%
    15:00 -15°C° 0 mm 2 mps 578 mmHg 82%
    16:00 -16°C° 0 mm 2 mps 578 mmHg 83%
    17:00 -17°C° 0 mm 2 mps 577 mmHg 84%
    18:00 -19°C° 0 mm 2 mps 577 mmHg 86%
    19:00 -20°C° 0 mm 2 mps 576 mmHg 87%
    20:00 -21°C° 0 mm 2 mps 576 mmHg 86%
    21:00 -23°C° 0 mm 2 mps 576 mmHg 86%
    22:00 -23°C° 0 mm 2 mps 576 mmHg 86%
    23:00 -23°C° 0 mm 2 mps 576 mmHg 86%

    Day after tomorrow, 18 January, Wednesday

    Time Temperature Precipitation Wind Pressure Humidity
    00:00 -23°C° 0 mm 2 mps 576 mmHg 86%
    01:00 -23°C° 0 mm 2 mps 576 mmHg 86%
    02:00 -23°C° 0 mm 2 mps 576 mmHg 85%
    03:00 -23°C° 0 mm 2 mps 575 mmHg 85%
    04:00 -23°C° 0 mm 2 mps 575 mmHg 85%
    05:00 -23°C° 0 mm 2 mps 576 mmHg 84%
    06:00 -23°C° 0 mm 2 mps 576 mmHg 84%
    07:00 -23°C° 0 mm 2 mps 576 mmHg 84%
    08:00 -19°C° 0 mm 2 mps 578 mmHg 82%
    09:00 -15°C° 0 mm 1 mps 579 mmHg 81%
    10:00 -12°C° 0 mm 1 mps 581 mmHg 80%
    11:00 -11°C° 0 mm 1 mps 582 mmHg 78%
    12:00 -9°C° 0 mm 1 mps 582 mmHg 77%
    13:00 -8°C° 0 mm 1 mps 583 mmHg 75%
    14:00 -9°C° 0 mm 1 mps 583 mmHg 78%
    15:00 -10°C° 0 mm 1 mps 582 mmHg 81%
    16:00 -11°C° 0 mm 1 mps 581 mmHg 84%
    17:00 -13°C° 0 mm 1 mps 580 mmHg 85%
    18:00 -15°C° 0 mm 1 mps 579 mmHg 87%
    19:00 -18°C° 0 mm 1 mps 578 mmHg 88%
    20:00 -19°C° 0 mm 1 mps 578 mmHg 88%
    21:00 -19°C° 0 mm 1 mps 577 mmHg 88%
    22:00 -20°C° 0 mm 1 mps 577 mmHg 88%
    23:00 -20°C° 0 mm 1 mps 577 mmHg 88%

    19 January, Thursday

    Time Temperature Precipitation Wind Pressure Humidity
    00:00 -20°C° 0 mm 1 mps 577 mmHg 88%
    01:00 -20°C° 0 mm 1 mps 577 mmHg 88%
    02:00 -20°C° 0 mm 1 mps 577 mmHg 87%
    03:00 -20°C° 0 mm 1 mps 578 mmHg 86%
    04:00 -19°C° 0 mm 1 mps 578 mmHg 86%
    05:00 -19°C° 0 mm 1 mps 578 mmHg 86%
    06:00 -19°C° 0 mm 1 mps 578 mmHg 85%
    07:00 -19°C° 0 mm 1 mps 578 mmHg 85%
    08:00 -17°C° 0 mm 1 mps 580 mmHg 83%
    09:00 -14°C° 0 mm 1 mps 582 mmHg 81%
    10:00 -11°C° 0 mm 1 mps 583 mmHg 79%
    11:00 -10°C° 0 mm 1 mps 584 mmHg 77%
    12:00 -9°C° 0 mm 1 mps 584 mmHg 76%
    13:00 -7°C° 0 mm 1 mps 584 mmHg 74%
    14:00 -9°C° 0 mm 1 mps 584 mmHg 77%
    15:00 -10°C° 0 mm 1 mps 583 mmHg 80%
    16:00 -11°C° 0 mm 1 mps 582 mmHg 83%
    17:00 -13°C° 0 mm 1 mps 581 mmHg 83%
    18:00 -15°C° 0 mm 1 mps 580 mmHg 84%
    19:00 -18°C° 0 mm 1 mps 579 mmHg 85%
    20:00 -18°C° 0 mm 1 mps 579 mmHg 84%
    21:00 -18°C° 0 mm 1 mps 579 mmHg 83%
    22:00 -18°C° 0 mm 1 mps 579 mmHg 81%
    23:00 -18°C° 0 mm 1 mps 579 mmHg 81%

    20 January, Friday

    Time Temperature Precipitation Wind Pressure Humidity
    00:00 -18°C° 0 mm 1 mps 579 mmHg 81%
    01:00 -18°C° 0 mm 1 mps 579 mmHg 81%
    02:00 -19°C° 0 mm 1 mps 578 mmHg 81%
    03:00 -19°C° 0 mm 1 mps 578 mmHg 81%
    04:00 -19°C° 0 mm 1 mps 578 mmHg 82%
    05:00 -19°C° 0 mm 1 mps 578 mmHg 82%
    06:00 -19°C° 0 mm 1 mps 578 mmHg 82%
    07:00 -19°C° 0 mm 1 mps 578 mmHg 82%
    08:00 -16°C° 0 mm 1 mps 580 mmHg 80%
    09:00 -14°C° 0 mm 1 mps 581 mmHg 78%
    10:00 -11°C° 0 mm 1 mps 583 mmHg 76%
    11:00 -10°C° 0 mm 1 mps 583 mmHg 75%
    12:00 -8°C° 0 mm 1 mps 584 mmHg 75%
    13:00 -7°C° 0 mm 1 mps 584 mmHg 75%
    14:00 -8°C° 0 mm 1 mps 583 mmHg 78%
    15:00 -9°C° 0 mm 0 mps 583 mmHg 81%
    16:00 -10°C° 0 mm 0 mps 582 mmHg 84%
    17:00 -13°C° 0 mm 0 mps 580 mmHg 86%
    18:00 -15°C° 0 mm 1 mps 579 mmHg 89%
    19:00 -17°C° 0 mm 1 mps 578 mmHg 92%
    20:00 -18°C° 0 mm 1 mps 578 mmHg 92%
    21:00 -18°C° 0 mm 1 mps 578 mmHg 92%
    22:00 -18°C° 0 mm 1 mps 578 mmHg 92%
    23:00 -18°C° 0 mm 1 mps 578 mmHg 92%

    21 January, Saturday

    Time Temperature Precipitation Wind Pressure Humidity
    00:00 -18°C° 0 mm 1 mps 577 mmHg 92%
    01:00 -18°C° 0 mm 1 mps 577 mmHg 93%
    02:00 -18°C° 0 mm 1 mps 577 mmHg 92%
    03:00 -18°C° 0 mm 1 mps 577 mmHg 92%
    04:00 -18°C° 0 mm 1 mps 576 mmHg 92%
    05:00 -18°C° 0 mm 1 mps 576 mmHg 92%
    06:00 -18°C° 0 mm 1 mps 576 mmHg 91%
    07:00 -19°C° 0 mm 1 mps 576 mmHg 91%
    08:00 -16°C° 0 mm 1 mps 578 mmHg 87%
    09:00 -13°C° 0 mm 1 mps 579 mmHg 84%
    10:00 -11°C° 0 mm 1 mps 581 mmHg 80%
    11:00 -10°C° 0 mm 1 mps 581 mmHg 79%
    12:00 -8°C° 0 mm 1 mps 581 mmHg 78%
    13:00 -7°C° 0 mm 1 mps 581 mmHg 77%
    14:00 -8°C° 0 mm 1 mps 581 mmHg 79%
    15:00 -9°C° 0 mm 1 mps 580 mmHg 82%
    16:00 -9°C° 0 mm 1 mps 579 mmHg 84%
    17:00 -12°C° 0 mm 1 mps 578 mmHg 86%
    18:00 -14°C° 0 mm 1 mps 577 mmHg 89%
    19:00 -16°C° 0 mm 1 mps 576 mmHg 91%
    20:00 -16°C° 0 mm 1 mps 575 mmHg 91%
    21:00 -17°C° 0 mm 1 mps 575 mmHg 90%
    22:00 -17°C° 0 mm 1 mps 575 mmHg 90%
    23:00 -19°C° 0 mm 2 mps 575 mmHg 90%
    Show more